Location: Arundel
(45.9667°N, 74.6189°W)
Time: 05:42:48
(UTC+00:00)

X-37B - Pass Details

Date: 09 December 2022
Orbit: 277 x 277 km, 45.0° (Epoch: 01 November)

Event Time Altitude Azimuth Distance (km) Brightness Sun altitude
Rises 21:58:12 0° 219° (SW) 1,905 5.4 -7.7°
Reaches altitude 10° 22:00:28 10° 197° (SSW) 1,096 3.5 -8.0°
Maximum altitude 22:02:11 17° 153° (SSE) 808 2.2 -8.3°
Drops below altitude 10° 22:03:54 10° 108° (ESE) 1,100 2.4 -8.6°
Enters shadow 22:04:10 - 104° (ESE) 1,185 2.6 -8.6°
